TimeCDT,TemperatureF,Dew PointF,Humidity,Sea Level PressureIn,VisibilityMPH,Wind Direction,Wind SpeedMPH,Gust SpeedMPH,PrecipitationIn,Events,Conditions,WindDirDegrees,DateUTC
12:52 AM,70.0,59.0,68,30.10,10.0,Calm,Calm,-,N/A,,Clear,0,2013-07-15 05:52:00
1:52 AM,70.0,59.0,68,30.10,10.0,Calm,Calm,-,N/A,,Clear,0,2013-07-15 06:52:00
2:52 AM,64.0,59.0,84,30.10,10.0,Calm,Calm,-,N/A,,Clear,0,2013-07-15 07:52:00
3:52 AM,64.9,60.1,84,30.10,10.0,North,4.6,-,N/A,,Clear,350,2013-07-15 08:52:00
4:52 AM,66.9,60.1,79,30.10,10.0,Calm,Calm,-,N/A,,Clear,0,2013-07-15 09:52:00
5:52 AM,66.0,60.1,81,30.12,10.0,Calm,Calm,-,N/A,,Clear,0,2013-07-15 10:52:00
6:52 AM,66.0,61.0,84,30.13,8.0,NNE,4.6,-,N/A,,Clear,30,2013-07-15 11:52:00
7:52 AM,71.1,63.0,75,30.14,8.0,ENE,3.5,-,N/A,,Clear,60,2013-07-15 12:52:00
8:52 AM,73.9,64.0,71,30.15,10.0,East,5.8,-,N/A,,Clear,90,2013-07-15 13:52:00
9:52 AM,79.0,64.9,62,30.15,10.0,ENE,4.6,-,N/A,,Clear,70,2013-07-15 14:52:00
10:52 AM,84.9,64.0,49,30.14,10.0,ESE,5.8,-,N/A,,Clear,120,2013-07-15 15:52:00
11:52 AM,87.1,61.0,41,30.14,10.0,ESE,6.9,-,N/A,,Clear,120,2013-07-15 16:52:00
12:52 PM,89.1,63.0,42,30.13,10.0,East,6.9,-,N/A,,Clear,90,2013-07-15 17:52:00
1:52 PM,88.0,62.1,42,30.11,10.0,ESE,8.1,16.1,N/A,,Partly Cloudy,110,2013-07-15 18:52:00
2:52 PM,90.0,63.0,40,30.09,10.0,ESE,10.4,17.3,N/A,,Mostly Cloudy,120,2013-07-15 19:52:00
3:52 PM,91.0,62.1,38,30.08,10.0,ESE,12.7,19.6,N/A,,Clear,110,2013-07-15 20:52:00
4:52 PM,89.1,61.0,39,30.06,10.0,East,13.8,20.7,N/A,,Clear,100,2013-07-15 21:52:00
5:52 PM,88.0,61.0,40,30.06,10.0,ESE,9.2,-,N/A,,Overcast,120,2013-07-15 22:52:00
6:52 PM,88.0,62.1,42,30.07,10.0,SSE,8.1,-,N/A,,Overcast,150,2013-07-15 23:52:00
7:52 PM,82.9,62.1,49,30.10,10.0,ESE,6.9,-,N/A,,Overcast,120,2013-07-16 00:52:00
8:52 PM,80.1,62.1,54,30.11,10.0,South,3.5,-,N/A,,Mostly Cloudy,170,2013-07-16 01:52:00
9:52 PM,75.0,62.1,64,30.13,10.0,SW,4.6,-,N/A,,Clear,220,2013-07-16 02:52:00
10:52 PM,73.9,64.0,71,30.15,10.0,SW,4.6,-,N/A,,Clear,230,2013-07-16 03:52:00
11:52 PM,72.0,64.0,76,30.17,10.0,WSW,3.5,-,N/A,,Partly Cloudy,250,2013-07-16 04:52:00